Location: Dunedin
(45.8900°S, 170.5000°E)
Time: 12:29:24
(UTC+12:00)

ISS - Pass Details

Date: 20 April 2024
Orbit: 409 x 414 km, 51.6° (Epoch: 20 May)

Event Time Altitude Azimuth Distance (km) Brightness Sun altitude
Rises 19:22:16 0° 278° (W) 2,402 1.8 -16.3°
Reaches altitude 10° 19:24:27 10° 271° (W) 1,539 0.5 -16.6°
Maximum altitude 19:27:46 43° 197° (SSW) 621 -2.8 -17.2°
Enters shadow 19:28:59 30° 147° (SSE) 805 -2.6 -17.4°
